User: anonymous   Login
Location: Les Coudrans
(46.1056°N, 1.1158°W)
Time: 17:56:18
(UTC+00:00)
Language:

MOS 1 Rocket - Orbit

View from above orbital plane
View from above orbital plane
View from above satellite
View from above satellite

Ground track
Ground track

The orbit data is extracted from the following two-line orbital elements,

1 17528U 87018B   21129.50335902  .00000119  00000-0  35019-4 0  9992
2 17528  97.4080 306.0955 0152060 159.4394 201.3014 14.51053468806114
Epoch (UTC): 09 May 2021 12:04:50
Eccentricity: 0.0152060
inclination: 97.4080°
perigee height: 614 km
apogee height: 830 km
right ascension of ascending node: 306.0955°
argument of perigee: 159.4394°
revolutions per day: 14.51053468
mean anomaly at epoch: 201.3014°
orbit number at epoch: 80611

The dashed part of the orbit path shows where the satellite is in the earth's shadow,  

DLR